Vertical_Velocity
23 28 39 -5 -42 4 -0 32 24 49 -9 9 7 4 -2 5 5 2 -3 -6 1 2 3 1 1 2 2 4 2 -0 2 2 -0 2 -0 -6 3 3 -2 1 -0 -1 -2
28 -17 -36 -26 -28 -3 -18 6 15 13 -10 -1 2 1 18 0 0 5 5 5 6 4 4 2 3 3 2 -1 1 1 4 -0 2 2 1 -8 1 -0 2 1 3 1 -2
-3 4 0 -4 21 20 -17 -15 -31 7 -12 -6 0 6 -24 36 23 3 3 -0 0 4 3 2 3 3 0 2 2 4 -0 2 -3 2 1 -4 2 1 -0 2 1 1 -1
10 -5 -5 11 16 -38 -6 6 -6 7 6 -2 -6 -5 0 -2 -9 -6 17 5 5 2 3 5 2 2 2 -0 2 -0 -1 -0 0 -4 -8 -7 -1 1 1 -2 0 0 -0
17 11 -2 -4 6 -13 -3 -2 -1 3 3 6 8 -1 13 -2 10 19 14 1 6 1 3 3 1 1 6 1 0 -2 -2 -1 -1 -4 11 -16 -7 3 2 -1 2 1 0
12 -2 15 -9 -8 2 4 -6 11 -4 1 2 0 5 2 9 -17 -4 -3 6 3 3 1 -3 1 6 6 3 3 1 5 3 1 16 11 -10 -28 -5 -13 -4 6 6 -1
9 13 -0 -0 -4 -9 1 0 -11 -1 1 25 9 6 10 -10 -7 4 15 -2 -3 -3 1 -1 -2 -5 1 2 -0 4 15 7 4 3 6 2 13 -22 -11 -12 5 4 1
26 21 -13 6 5 6 -2 3 14 30 17 16 8 -13 6 8 -8 -1 14 15 9 14 4 3 0 6 17 21 7 -6 0 -4 -2 -6 -1 -4 4 1 -10 -2 5 3 -3
-17 18 -4 32 -5 -10 4 20 -8 -2 8 32 13 0 6 17 -1 -7 -5 -9 21 19 -3 21 11 7 -2 -3 19 3 3 -12 -11 2 -2 -8 6 13 2 4 6 5 17
0 10 -4 -2 1 2 -2 -1 -1 1 -17 13 -7 6 14 -0 1 -8 -2 -5 -7 6 11 4 6 7 6 -1 -9 0 -3 -1 4 6 -1 4 0 -11 10 8 9 1 -1
-3 -3 2 -1 4 8 5 -11 -5 7 2 10 10 5 2 18 11 7 5 3 -5 9 -8 -6 13 3 6 2 -12 -0 -3 5 2 2 0 -2 13 -10 9 3 1 -0 1
-1 3 -4 1 0 1 1 -0 2 -6 14 3 6 -1 11 7 -10 -12 -3 -8 17 13 -5 -8 -8 9 -8 2 6 -0 -2 -9 19 26 4 -14 -4 -3 -2 -1 3 0 -1
1 3 -1 -3 5 -1 -7 -3 1 1 -4 3 3 11 -9 -5 -2 -8 -11 -12 -14 -8 0 3 -8 2 8 9 8 -5 -16 13 9 -8 2 -5 -2 -4 3 -1 -1 -4 -2
1 1 -2 -9 -7 -4 -11 -0 2 -2 -4 4 10 9 54 -4 1 36 6 -0 31 33 45 8 53 15 1 6 -5 -7 5 3 5 4 3 5 4 4 3 1 4 2 3
-2 0 2 1 1 -1 1 -5 -2 -2 4 0 -3 -9 6 7 6 -10 -7 -4 -3 -6 -7 4 14 22 1 7 9 4 2 3 1 3 2 3 8 5 1 2 1 -4 1
0 -6 -4 -5 2 -2 -4 -1 -4 2 2 -1 -0 -2 2 -0 -3 -4 0 -1 -4 -5 -8 2 3 5 6 4 5 2 1 -1 -2 -1 2 -5 4 5 -0 5 -2 1 -2
-1 -1 1 3 1 -2 2 2 3 -1 -2 -5 0 0 3 12 1 -1 0 -5 5 -0 -1 6 10 10 6 4 0 2 2 1 0 2 -2 -1 8 -2 -2 3 -1 6 -2
-2 -0 8 -1 1 0 0 -2 -1 -3 -0 1 -1 -1 -1 1 -2 0 4 -17 -14 -6 -4 -0 2 0 -1 1 1 2 3 3 2 2 -2 1 7 4 7 0 2 -4 -2
-1 -2 -3 -1 1 -0 -1 -0 1 -2 -1 2 1 -5 -2 -1 -1 1 -2 0 -13 -8 -1 1 1 -2 1 2 1 2 3 3 0 8 0 -0 15 -1 -3 -2 -6 0 -1
2 1 -2 -2 0 0 -2 -3 -1 -1 2 -1 -2 5 0 1 1 2 6 4 4 1 4 5 5 -5 -1 2 3 1 1 -1 1 7 1 3 -4 -1 -3 -0 -1 2 -2
-5 -2 -0 -0 -4 -7 -6 -6 -6 -7 -2 -1 -2 -2 -2 2 5 2 6 2 -0 1 0 -1 -1 1 3 1 -1 0 -0 -0 -1 4 2 3 -2 -2 1 2 -1 2 1
-3 -2 -2 -1 0 2 -1 -5 -6 -5 -6 -6 -1 1 3 -1 -3 -1 1 2 -2 3 -1 -2 -0 2 0 1 3 2 2 0 1 0 -0 -2 -4 -2 3 -2 -2 3 1
-5 -3 -4 -0 0 -1 -2 -0 4 1 -2 -1 -2 -4 -5 -5 -4 -2 -3 -1 -6 -4 -3 -3 0 4 2 1 -1 2 0 3 2 -1 1 3 -4 4 1 -0 2 -2 -1
1 1 -3 -2 -1 -0 1 -0 1 4 2 -0 -4 -4 -2 2 3 -0 -5 -5 -4 -5 1 -1 3 8 -6 -1 3 6 -0 4 1 -0 -9 5 8 -0 -1 3 2 6 -1
-2 -2 -2 -3 -1 -4 -3 -1 -1 -0 2 -0 0 1 3 1 -0 -0 2 3 1 2 1 2 3 -5 -2 9 -4 -6 1 8 2 -1 1 2 -3 -2 2 -5 3 -3 3
-1 -1 0 1 0 -1 -5 -6 -5 -2 -3 -0 -2 -1 -2 -1 -0 0 2 -1 -1 -2 -3 -1 -3 -2 3 3 3 -5 1 5 -3 1 5 2 -7 -2 1 -2 3 1 -2
Height
2995 3003 3010 3020 3034 3035 3041 3041 3043 3046 3058 3067 3074 3080 3085 3092 3098 3104 3112 3120 3125 3131 3136 3142 3147 3150 3155 3158 3160 3162 3164 3166 3167 3168 3168 3169 3168 3168 3167 3167 3167 3167 3167
2993 3001 3011 3019 3028 3035 3039 3039 3042 3048 3055 3064 3071 3077 3079 3085 3095 3100 3107 3114 3121 3127 3133 3138 3143 3148 3151 3153 3156 3159 3161 3162 3163 3164 3165 3165 3166 3165 3164 3164 3164 3164 3164
2996 3003 3010 3017 3027 3034 3034 3036 3041 3047 3053 3060 3066 3072 3076 3076 3083 3094 3100 3108 3116 3123 3129 3134 3140 3144 3148 3151 3153 3156 3157 3158 3159 3159 3161 3161 3162 3162 3161 3161 3161 3161 3160
2999 3003 3010 3015 3017 3029 3032 3034 3039 3045 3049 3054 3057 3064 3071 3076 3081 3090 3097 3104 3110 3117 3124 3130 3136 3140 3144 3147 3149 3151 3154 3154 3154 3156 3157 3158 3159 3159 3159 3158 3157 3158 3157
3000 3005 3012 3018 3021 3028 3031 3034 3037 3040 3045 3050 3054 3058 3065 3071 3078 3082 3092 3099 3106 3112 3118 3124 3131 3135 3139 3142 3145 3148 3150 3150 3152 3153 3153 3155 3155 3154 3154 3154 3154 3153 3151
3003 3008 3012 3015 3021 3025 3029 3033 3034 3036 3040 3045 3051 3054 3060 3067 3073 3080 3088 3094 3101 3107 3113 3120 3127 3131 3134 3137 3140 3142 3145 3146 3147 3149 3147 3149 3148 3150 3149 3150 3149 3148 3146
3003 3008 3012 3018 3022 3024 3026 3027 3030 3031 3033 3038 3041 3050 3056 3063 3069 3076 3083 3089 3096 3103 3109 3116 3120 3125 3129 3131 3133 3135 3138 3139 3141 3141 3144 3143 3141 3141 3141 3141 3143 3142 3141
3004 3008 3008 3016 3020 3023 3024 3025 3025 3024 3025 3035 3041 3046 3052 3057 3064 3070 3077 3087 3095 3100 3107 3112 3116 3119 3121 3124 3127 3130 3132 3132 3132 3134 3135 3134 3131 3130 3133 3133 3137 3137 3136
3001 3004 3008 3015 3021 3022 3023 3025 3026 3026 3028 3034 3039 3045 3048 3051 3059 3066 3072 3079 3088 3096 3102 3105 3109 3113 3116 3117 3117 3122 3121 3124 3126 3128 3127 3127 3124 3124 3123 3127 3130 3131 3127
3011 3011 3013 3017 3023 3025 3025 3025 3026 3030 3031 3035 3037 3041 3045 3051 3057 3063 3069 3075 3081 3088 3094 3098 3103 3103 3105 3106 3112 3115 3117 3117 3118 3119 3119 3119 3119 3116 3120 3122 3123 3123 3123
3016 3017 3019 3021 3023 3024 3026 3028 3029 3033 3035 3036 3038 3041 3046 3050 3055 3059 3064 3068 3073 3080 3087 3092 3092 3096 3101 3103 3105 3108 3107 3107 3108 3109 3110 3111 3111 3113 3115 3116 3118 3118 3118
3022 3022 3022 3023 3025 3027 3028 3030 3030 3031 3035 3037 3039 3041 3045 3050 3055 3059 3062 3067 3071 3075 3080 3081 3085 3089 3093 3096 3098 3099 3099 3098 3096 3095 3099 3099 3104 3107 3109 3111 3111 3111 3111
3027 3025 3025 3024 3025 3027 3030 3033 3034 3035 3037 3038 3040 3043 3045 3048 3051 3055 3058 3061 3065 3067 3070 3073 3076 3080 3082 3084 3089 3091 3090 3090 3090 3092 3093 3097 3099 3101 3102 3103 3103 3104 3105
3031 3030 3028 3028 3029 3030 3033 3035 3036 3038 3039 3039 3041 3042 3043 3047 3047 3049 3052 3054 3056 3057 3061 3064 3066 3071 3074 3077 3080 3081 3084 3085 3086 3087 3090 3091 3093 3094 3096 3096 3096 3097 3097
3035 3034 3033 3034 3035 3036 3035 3037 3038 3041 3041 3042 3042 3043 3044 3045 3046 3047 3049 3051 3053 3055 3058 3060 3063 3065 3067 3069 3072 3076 3078 3078 3079 3081 3084 3085 3087 3088 3089 3090 3090 3090 3090
3038 3038 3037 3038 3038 3038 3038 3040 3040 3041 3040 3039 3041 3044 3045 3046 3046 3049 3049 3050 3051 3054 3057 3060 3062 3063 3066 3068 3070 3070 3071 3072 3072 3074 3077 3079 3081 3082 3083 3084 3083 3083 3082
3036 3038 3039 3039 3039 3039 3040 3040 3040 3040 3039 3041 3042 3044 3045 3044 3047 3045 3046 3047 3049 3050 3054 3058 3059 3060 3061 3062 3063 3063 3064 3065 3065 3067 3069 3071 3073 3074 3076 3077 3078 3077 3076
3035 3037 3037 3037 3038 3038 3039 3040 3039 3039 3040 3041 3041 3042 3043 3045 3045 3044 3043 3044 3046 3048 3050 3053 3054 3054 3055 3056 3056 3056 3056 3057 3058 3059 3061 3064 3064 3066 3068 3070 3069 3069 3068
3031 3032 3033 3035 3035 3036 3036 3037 3037 3039 3040 3040 3039 3040 3042 3043 3043 3044 3042 3043 3043 3045 3046 3048 3047 3048 3048 3048 3048 3049 3050 3050 3052 3054 3056 3057 3057 3061 3062 3062 3063 3062 3061
3029 3028 3029 3030 3031 3031 3033 3034 3035 3036 3036 3036 3038 3039 3039 3041 3041 3040 3041 3040 3039 3040 3041 3040 3041 3042 3042 3043 3042 3042 3042 3044 3047 3048 3051 3052 3054 3054 3053 3055 3055 3054 3054
3027 3027 3026 3026 3025 3027 3027 3028 3029 3030 3031 3031 3032 3033 3034 3034 3033 3033 3034 3033 3033 3034 3034 3034 3034 3035 3035 3035 3035 3036 3037 3038 3040 3043 3044 3046 3045 3046 3046 3047 3046 3047 3047
3023 3024 3024 3024 3024 3023 3023 3023 3023 3023 3023 3023 3023 3024 3024 3023 3024 3024 3024 3023 3023 3024 3024 3025 3025 3026 3026 3026 3026 3027 3028 3030 3032 3034 3035 3035 3037 3038 3037 3037 3039 3039 3038
3018 3019 3020 3020 3021 3022 3021 3020 3019 3018 3017 3015 3014 3014 3013 3014 3013 3012 3011 3011 3011 3012 3012 3013 3014 3015 3015 3016 3017 3018 3020 3021 3022 3023 3025 3024 3027 3028 3028 3029 3029 3029 3030
3011 3013 3014 3016 3016 3016 3016 3016 3015 3013 3012 3011 3009 3008 3007 3006 3004 3003 3004 3003 3002 3001 3001 3001 3001 3003 3003 3006 3007 3008 3009 3011 3012 3012 3015 3015 3016 3019 3018 3020 3021 3020 3020
3006 3006 3008 3010 3011 3011 3010 3010 3009 3008 3007 3006 3004 3002 3000 2998 2997 2995 2994 2993 2993 2992 2990 2992 2991 2991 2994 2996 2998 2998 3000 3001 3000 3002 3004 3004 3006 3010 3010 3011 3013 3011 3013
3001 3001 3003 3004 3005 3005 3005 3004 3003 3002 3001 2999 2997 2995 2993 2990 2989 2987 2986 2984 2983 2981 2981 2981 2981 2983 2986 2987 2986 2989 2990 2990 2991 2992 2992 2994 2998 3000 3002 3003 3004 3003 3003